"Period start","avg(HW err(1)/warn(2) (#))","avg(Visibility (m))","avg(Weather code (#))","avg(Precip intensity (mm/h))","min(HW err(1)/warn(2) (#))","max(HW err(1)/warn(2) (#))","std(HW err(1)/warn(2) (#))","med(HW err(1)/warn(2) (#))","min(Visibility (m))","max(Visibility (m))","std(Visibility (m))","med(Visibility (m))","min(Weather code (#))","max(Weather code (#))","std(Weather code (#))","med(Weather code (#))","min(Precip intensity (mm/h))","max(Precip intensity (mm/h))","std(Precip intensity (mm/h))","med(Precip intensity (mm/h))"
2013-09-09 00:00:00,2,50000,0,0.00,2,2,0,2,50000,50000,0,50000,0,0,0,0,0.00,0.00,0.00,0.00
2013-09-09 00:10:00,2,50000,0,0.00,2,2,0,2,50000,50000,0,50000,0,0,0,0,0.00,0.00,0.00,0.00
2013-09-09 00:20:00,2,49843,0,0.00,2,2,0,2,48433,50000,470,50000,0,0,0,0,0.00,0.00,0.00,0.00
2013-09-09 00:30:00,2,17335,18,0.17,2,2,0,2,4346,50000,14392,10031,0,52,23,0,0.00,0.85,0.31,0.00
2013-09-09 00:40:00,2,33016,7,0.00,2,2,0,2,8909,50000,16216,35288,0,51,15,0,0.00,0.00,0.00,0.00
2013-09-09 00:50:00,2,49834,0,0.00,2,2,0,2,48343,50000,497,50000,0,0,0,0,0.00,0.00,0.00,0.00
2013-09-09 01:00:00,2,50000,0,0.00,2,2,0,2,50000,50000,0,50000,0,0,0,0,0.00,0.00,0.00,0.00
2013-09-09 01:10:00,2,50000,0,0.00,2,2,0,2,50000,50000,0,50000,0,0,0,0,0.00,0.00,0.00,0.00
2013-09-09 01:20:00,2,50000,0,0.00,2,2,0,2,50000,50000,0,50000,0,0,0,0,0.00,0.00,0.00,0.00
2013-09-09 01:30:00,2,46429,0,0.00,2,2,0,2,38744,50000,3885,48070,0,0,0,0,0.00,0.00,0.00,0.00
2013-09-09 01:40:00,2,19512,45,1.74,2,2,0,2,11734,47605,13149,13274,0,61,24,61,0.00,3.70,1.14,1.73
2013-09-09 01:50:00,2,19012,61,1.60,2,2,0,2,11710,30923,5131,18703,61,61,0,61,0.05,5.35,1.58,1.20
2013-09-09 02:00:00,2,31607,15,0.02,2,2,0,2,6408,50000,15007,35221,0,51,23,0,0.00,0.10,0.03,0.00
2013-09-09 02:10:00,2,23784,14,0.09,2,2,0,2,14926,45597,9584,19746,0,61,22,0,0.00,0.55,0.17,0.00
2013-09-09 02:20:00,2,49164,12,0.00,2,2,0,2,45734,50000,1444,50000,0,61,24,0,0.00,0.00,0.00,0.00
2013-09-09 02:30:00,2,48589,0,0.00,2,2,0,2,43238,50000,2177,50000,0,0,0,0,0.00,0.00,0.00,0.00
2013-09-09 02:40:00,2,48294,0,0.00,2,2,0,2,40639,50000,2842,49712,0,0,0,0,0.00,0.00,0.00,0.00
2013-09-09 02:50:00,2,49858,0,0.00,2,2,0,2,48720,50000,382,50000,0,0,0,0,0.00,0.00,0.00,0.00
2013-09-09 03:00:00,2,27222,24,1.87,2,2,0,2,7054,50000,19382,22148,0,52,24,20,0.00,12.80,3.74,0.15
2013-09-09 03:10:00,2,11629,61,7.02,2,2,0,2,6354,29472,6858,8637,61,62,0,61,0.10,12.35,4.54,7.55
2013-09-09 03:20:00,2,47689,0,0.00,2,2,0,2,36447,50000,4546,50000,0,0,0,0,0.00,0.00,0.00,0.00
2013-09-09 03:30:00,2,49931,0,0.00,2,2,0,2,49312,50000,206,50000,0,0,0,0,0.00,0.00,0.00,0.00
2013-09-09 03:40:00,2,49953,0,0.00,2,2,0,2,49531,50000,141,50000,0,0,0,0,0.00,0.00,0.00,0.00
2013-09-09 03:50:00,2,50000,0,0.00,2,2,0,2,50000,50000,0,50000,0,0,0,0,0.00,0.00,0.00,0.00
2013-09-09 04:00:00,2,49486,0,0.00,2,2,0,2,45819,50000,1243,50000,0,0,0,0,0.00,0.00,0.00,0.00
2013-09-09 04:10:00,2,27854,0,0.00,2,2,0,2,14446,50000,13321,21010,0,0,0,0,0.00,0.00,0.00,0.00
2013-09-09 04:20:00,2,10099,23,0.11,2,2,0,2,7154,13312,1876,9620,0,51,24,20,0.00,0.35,0.13,0.03
2013-09-09 04:30:00,2,11922,34,0.07,2,2,0,2,9807,17334,2107,11278,0,61,28,51,0.00,0.30,0.09,0.03
2013-09-09 04:40:00,2,40478,5,0.01,2,2,0,2,15388,50000,13686,50000,0,51,15,0,0.00,0.05,0.02,0.00
2013-09-09 04:50:00,2,49932,0,0.00,2,2,0,2,49319,50000,204,50000,0,0,0,0,0.00,0.00,0.00,0.00
2013-09-09 05:00:00,2,50000,0,0.00,2,2,0,2,50000,50000,0,50000,0,0,0,0,0.00,0.00,0.00,0.00
2013-09-09 05:10:00,2,50000,0,0.00,2,2,0,2,50000,50000,0,50000,0,0,0,0,0.00,0.00,0.00,0.00
2013-09-09 05:20:00,2,50000,0,0.00,2,2,0,2,50000,50000,0,50000,0,0,0,0,0.00,0.00,0.00,0.00
2013-09-09 05:30:00,2,50000,0,0.00,2,2,0,2,50000,50000,0,50000,0,0,0,0,0.00,0.00,0.00,0.00
2013-09-09 05:40:00,2,50000,0,0.00,2,2,0,2,50000,50000,0,50000,0,0,0,0,0.00,0.00,0.00,0.00
2013-09-09 05:50:00,2,49960,0,0.00,2,2,0,2,49600,50000,120,50000,0,0,0,0,0.00,0.00,0.00,0.00
2013-09-09 06:00:00,2,50000,0,0.00,2,2,0,2,50000,50000,0,50000,0,0,0,0,0.00,0.00,0.00,0.00
2013-09-09 06:10:00,2,49363,0,0.00,2,2,0,2,46375,50000,1290,50000,0,0,0,0,0.00,0.00,0.00,0.00
2013-09-09 06:20:00,2,50000,0,0.00,2,2,0,2,50000,50000,0,50000,0,0,0,0,0.00,0.00,0.00,0.00
2013-09-09 06:30:00,2,49880,0,0.00,2,2,0,2,48800,50000,360,50000,0,0,0,0,0.00,0.00,0.00,0.00
2013-09-09 06:40:00,2,49906,0,0.00,2,2,0,2,49058,50000,283,50000,0,0,0,0,0.00,0.00,0.00,0.00
2013-09-09 06:50:00,2,50000,0,0.00,2,2,0,2,50000,50000,0,50000,0,0,0,0,0.00,0.00,0.00,0.00
2013-09-09 07:00:00,2,50000,0,0.00,2,2,0,2,50000,50000,0,50000,0,0,0,0,0.00,0.00,0.00,0.00
2013-09-09 07:10:00,2,49774,0,0.00,2,2,0,2,47751,50000,674,50000,0,0,0,0,0.00,0.00,0.00,0.00
2013-09-09 07:20:00,2,50000,0,0.00,2,2,0,2,50000,50000,0,50000,0,0,0,0,0.00,0.00,0.00,0.00
2013-09-09 07:30:00,2,50000,0,0.00,2,2,0,2,50000,50000,0,50000,0,0,0,0,0.00,0.00,0.00,0.00
2013-09-09 07:40:00,2,50000,0,0.00,2,2,0,2,50000,50000,0,50000,0,0,0,0,0.00,0.00,0.00,0.00
2013-09-09 07:50:00,2,49997,0,0.00,2,2,0,2,49966,50000,10,50000,0,0,0,0,0.00,0.00,0.00,0.00
2013-09-09 08:00:00,2,50000,0,0.00,2,2,0,2,50000,50000,0,50000,0,0,0,0,0.00,0.00,0.00,0.00
2013-09-09 08:10:00,2,50000,0,0.00,2,2,0,2,50000,50000,0,50000,0,0,0,0,0.00,0.00,0.00,0.00
2013-09-09 08:20:00,2,50000,0,0.00,2,2,0,2,50000,50000,0,50000,0,0,0,0,0.00,0.00,0.00,0.00
2013-09-09 08:30:00,2,49922,0,0.00,2,2,0,2,49499,50000,154,50000,0,0,0,0,0.00,0.00,0.00,0.00
2013-09-09 08:40:00,2,50000,0,0.00,2,2,0,2,50000,50000,0,50000,0,0,0,0,0.00,0.00,0.00,0.00
2013-09-09 08:50:00,2,50000,0,0.00,2,2,0,2,50000,50000,0,50000,0,0,0,0,0.00,0.00,0.00,0.00
2013-09-09 09:00:00,2,50000,0,0.00,2,2,0,2,50000,50000,0,50000,0,0,0,0,0.00,0.00,0.00,0.00
2013-09-09 09:10:00,2,50000,0,0.00,2,2,0,2,50000,50000,0,50000,0,0,0,0,0.00,0.00,0.00,0.00
2013-09-09 09:20:00,2,49932,0,0.00,2,2,0,2,49317,50000,205,50000,0,0,0,0,0.00,0.00,0.00,0.00
2013-09-09 09:30:00,2,50000,0,0.00,2,2,0,2,50000,50000,0,50000,0,0,0,0,0.00,0.00,0.00,0.00
2013-09-09 09:40:00,2,50000,0,0.00,2,2,0,2,50000,50000,0,50000,0,0,0,0,0.00,0.00,0.00,0.00
2013-09-09 09:50:00,2,50000,0,0.00,2,2,0,2,50000,50000,0,50000,0,0,0,0,0.00,0.00,0.00,0.00
2013-09-09 10:00:00,2,50000,0,0.00,2,2,0,2,50000,50000,0,50000,0,0,0,0,0.00,0.00,0.00,0.00
2013-09-09 10:10:00,2,50000,0,0.00,2,2,0,2,50000,50000,0,50000,0,0,0,0,0.00,0.00,0.00,0.00
2013-09-09 10:20:00,2,50000,0,0.00,2,2,0,2,50000,50000,0,50000,0,0,0,0,0.00,0.00,0.00,0.00
2013-09-09 10:30:00,2,50000,0,0.00,0,2,1,2,50000,50000,0,50000,0,0,0,0,0.00,0.00,0.00,0.00
2013-09-09 10:40:00,1,49968,0,0.00,0,2,1,1,49680,50000,96,50000,0,0,0,0,0.00,0.00,0.00,0.00
2013-09-09 10:50:00,2,50000,0,0.00,2,2,0,2,50000,50000,0,50000,0,0,0,0,0.00,0.00,0.00,0.00
2013-09-09 11:00:00,2,50000,0,0.00,0,2,1,2,50000,50000,0,50000,0,0,0,0,0.00,0.00,0.00,0.00
2013-09-09 11:10:00,0,50000,0,0.00,0,0,0,0,50000,50000,0,50000,0,0,0,0,0.00,0.00,0.00,0.00
2013-09-09 11:20:00,1,50000,0,0.00,0,2,1,2,50000,50000,0,50000,0,0,0,0,0.00,0.00,0.00,0.00
2013-09-09 11:30:00,2,50000,0,0.00,2,2,0,2,50000,50000,0,50000,0,0,0,0,0.00,0.00,0.00,0.00
2013-09-09 11:40:00,2,50000,0,0.00,2,2,0,2,50000,50000,0,50000,0,0,0,0,0.00,0.00,0.00,0.00
2013-09-09 11:50:00,2,50000,0,0.00,2,2,0,2,50000,50000,0,50000,0,0,0,0,0.00,0.00,0.00,0.00
2013-09-09 12:00:00,2,50000,0,0.00,2,2,0,2,50000,50000,0,50000,0,0,0,0,0.00,0.00,0.00,0.00
2013-09-09 12:10:00,2,50000,0,0.00,2,2,0,2,50000,50000,0,50000,0,0,0,0,0.00,0.00,0.00,0.00
2013-09-09 12:20:00,2,50000,0,0.00,2,2,0,2,50000,50000,0,50000,0,0,0,0,0.00,0.00,0.00,0.00
2013-09-09 12:30:00,2,50000,0,0.00,2,2,0,2,50000,50000,0,50000,0,0,0,0,0.00,0.00,0.00,0.00
2013-09-09 12:40:00,2,50000,0,0.00,2,2,0,2,50000,50000,0,50000,0,0,0,0,0.00,0.00,0.00,0.00
2013-09-09 12:50:00,2,50000,0,0.00,2,2,0,2,50000,50000,0,50000,0,0,0,0,0.00,0.00,0.00,0.00
2013-09-09 13:00:00,2,50000,0,0.00,2,2,0,2,50000,50000,0,50000,0,0,0,0,0.00,0.00,0.00,0.00
2013-09-09 13:10:00,2,49998,0,0.00,2,2,0,2,49975,50000,8,50000,0,0,0,0,0.00,0.00,0.00,0.00
2013-09-09 13:20:00,2,50000,0,0.00,2,2,0,2,50000,50000,0,50000,0,0,0,0,0.00,0.00,0.00,0.00
2013-09-09 13:30:00,2,50000,0,0.00,2,2,0,2,50000,50000,0,50000,0,0,0,0,0.00,0.00,0.00,0.00
2013-09-09 13:40:00,2,50000,0,0.00,2,2,0,2,50000,50000,0,50000,0,0,0,0,0.00,0.00,0.00,0.00
2013-09-09 13:50:00,2,50000,0,0.00,2,2,0,2,50000,50000,0,50000,0,0,0,0,0.00,0.00,0.00,0.00
2013-09-09 14:00:00,2,50000,0,0.00,2,2,0,2,50000,50000,0,50000,0,0,0,0,0.00,0.00,0.00,0.00
2013-09-09 14:10:00,2,50000,0,0.00,2,2,0,2,50000,50000,0,50000,0,0,0,0,0.00,0.00,0.00,0.00
2013-09-09 14:20:00,2,50000,0,0.00,2,2,0,2,50000,50000,0,50000,0,0,0,0,0.00,0.00,0.00,0.00
2013-09-09 14:30:00,2,50000,0,0.00,2,2,0,2,50000,50000,0,50000,0,0,0,0,0.00,0.00,0.00,0.00
2013-09-09 14:40:00,2,50000,0,0.00,2,2,0,2,50000,50000,0,50000,0,0,0,0,0.00,0.00,0.00,0.00
2013-09-09 14:50:00,2,50000,0,0.00,2,2,0,2,50000,50000,0,50000,0,0,0,0,0.00,0.00,0.00,0.00
2013-09-09 15:00:00,2,50000,0,0.00,2,2,0,2,50000,50000,0,50000,0,0,0,0,0.00,0.00,0.00,0.00
2013-09-09 15:10:00,2,23657,0,0.00,2,2,0,2,2031,50000,21519,11257,0,4,1,0,0.00,0.00,0.00,0.00
2013-09-09 15:20:00,2,1258,9,0.00,2,2,0,2,781,2185,446,1170,4,10,2,10,0.00,0.00,0.00,0.00
2013-09-09 15:30:00,2,847,20,0.00,2,2,0,2,213,2881,815,386,10,34,12,10,0.00,0.00,0.00,0.00
2013-09-09 15:40:00,2,264,34,0.00,2,2,0,2,192,367,56,250,34,34,0,34,0.00,0.00,0.00,0.00
2013-09-09 15:50:00,2,455,34,0.00,2,2,0,2,294,553,75,461,34,34,0,34,0.00,0.00,0.00,0.00
2013-09-09 16:00:00,2,268,34,0.00,2,2,0,2,262,282,7,266,34,34,0,34,0.00,0.00,0.00,0.00
2013-09-09 16:10:00,2,270,34,0.00,2,2,0,2,242,287,12,274,34,34,0,34,0.00,0.00,0.00,0.00
2013-09-09 16:20:00,2,275,34,0.00,2,2,0,2,262,304,13,270,33,34,0,34,0.00,0.00,0.00,0.00
2013-09-09 16:30:00,2,509,33,0.00,2,2,0,2,296,1160,249,440,33,33,0,33,0.00,0.00,0.00,0.00
2013-09-09 16:40:00,2,33780,32,0.00,2,2,0,2,1944,50000,20031,46774,30,33,1,33,0.00,0.00,0.00,0.00
2013-09-09 16:50:00,2,49993,22,0.00,2,2,0,2,49926,50000,22,50000,20,30,4,20,0.00,0.00,0.00,0.00
2013-09-09 17:00:00,2,50000,20,0.00,2,2,0,2,50000,50000,0,50000,20,20,0,20,0.00,0.00,0.00,0.00
2013-09-09 17:10:00,2,49657,20,0.00,2,2,0,2,46574,50000,1028,50000,20,20,0,20,0.00,0.00,0.00,0.00
2013-09-09 17:20:00,2,50000,20,0.00,2,2,0,2,50000,50000,0,50000,20,20,0,20,0.00,0.00,0.00,0.00
2013-09-09 17:30:00,2,50000,20,0.00,2,2,0,2,50000,50000,0,50000,20,20,0,20,0.00,0.00,0.00,0.00
2013-09-09 17:40:00,2,50000,20,0.00,2,2,0,2,50000,50000,0,50000,20,20,0,20,0.00,0.00,0.00,0.00
2013-09-09 17:50:00,2,50000,4,0.00,2,2,0,2,50000,50000,0,50000,0,20,8,0,0.00,0.00,0.00,0.00
2013-09-09 18:00:00,2,50000,0,0.00,2,2,0,2,50000,50000,0,50000,0,0,0,0,0.00,0.00,0.00,0.00
2013-09-09 18:10:00,2,50000,0,0.00,2,2,0,2,50000,50000,0,50000,0,0,0,0,0.00,0.00,0.00,0.00
2013-09-09 18:20:00,2,50000,0,0.00,2,2,0,2,50000,50000,0,50000,0,0,0,0,0.00,0.00,0.00,0.00
2013-09-09 18:30:00,2,50000,0,0.00,2,2,0,2,50000,50000,0,50000,0,0,0,0,0.00,0.00,0.00,0.00
2013-09-09 18:40:00,2,50000,0,0.00,2,2,0,2,50000,50000,0,50000,0,0,0,0,0.00,0.00,0.00,0.00
2013-09-09 18:50:00,2,50000,0,0.00,2,2,0,2,50000,50000,0,50000,0,0,0,0,0.00,0.00,0.00,0.00
2013-09-09 19:00:00,2,50000,0,0.00,2,2,0,2,50000,50000,0,50000,0,0,0,0,0.00,0.00,0.00,0.00
2013-09-09 19:10:00,2,50000,0,0.00,2,2,0,2,50000,50000,0,50000,0,0,0,0,0.00,0.00,0.00,0.00
2013-09-09 19:20:00,2,50000,0,0.00,2,2,0,2,50000,50000,0,50000,0,0,0,0,0.00,0.00,0.00,0.00
2013-09-09 19:30:00,2,50000,0,0.00,2,2,0,2,50000,50000,0,50000,0,0,0,0,0.00,0.00,0.00,0.00
2013-09-09 19:40:00,2,50000,0,0.00,2,2,0,2,50000,50000,0,50000,0,0,0,0,0.00,0.00,0.00,0.00
2013-09-09 19:50:00,2,50000,0,0.00,2,2,0,2,50000,50000,0,50000,0,0,0,0,0.00,0.00,0.00,0.00
2013-09-09 20:00:00,2,50000,0,0.00,2,2,0,2,50000,50000,0,50000,0,0,0,0,0.00,0.00,0.00,0.00
2013-09-09 20:10:00,2,40236,28,0.09,2,2,0,2,15104,50000,13706,49160,0,51,24,40,0.00,0.70,0.21,0.00
2013-09-09 20:20:00,2,40387,15,0.11,2,2,0,2,16619,50000,13538,49882,0,52,24,0,0.00,0.75,0.24,0.00
2013-09-09 20:30:00,2,49655,0,0.00,2,2,0,2,47227,50000,834,50000,0,0,0,0,0.00,0.00,0.00,0.00
2013-09-09 20:40:00,2,50000,0,0.00,2,2,0,2,50000,50000,0,50000,0,0,0,0,0.00,0.00,0.00,0.00
2013-09-09 20:50:00,2,50000,0,0.00,2,2,0,2,50000,50000,0,50000,0,0,0,0,0.00,0.00,0.00,0.00
2013-09-09 21:00:00,2,50000,0,0.00,2,2,0,2,50000,50000,0,50000,0,0,0,0,0.00,0.00,0.00,0.00
2013-09-09 21:10:00,2,50000,0,0.00,2,2,0,2,50000,50000,0,50000,0,0,0,0,0.00,0.00,0.00,0.00
2013-09-09 21:20:00,2,50000,0,0.00,2,2,0,2,50000,50000,0,50000,0,0,0,0,0.00,0.00,0.00,0.00
2013-09-09 21:30:00,2,50000,0,0.00,2,2,0,2,50000,50000,0,50000,0,0,0,0,0.00,0.00,0.00,0.00
2013-09-09 21:40:00,2,50000,0,0.00,2,2,0,2,50000,50000,0,50000,0,0,0,0,0.00,0.00,0.00,0.00
2013-09-09 21:50:00,2,49581,0,0.00,2,2,0,2,47454,50000,787,50000,0,0,0,0,0.00,0.00,0.00,0.00
2013-09-09 22:00:00,2,50000,0,0.00,2,2,0,2,50000,50000,0,50000,0,0,0,0,0.00,0.00,0.00,0.00
2013-09-09 22:10:00,2,50000,0,0.00,2,2,0,2,50000,50000,0,50000,0,0,0,0,0.00,0.00,0.00,0.00
2013-09-09 22:20:00,2,49896,0,0.00,2,2,0,2,49172,50000,249,50000,0,0,0,0,0.00,0.00,0.00,0.00
2013-09-09 22:30:00,2,49909,0,0.00,2,2,0,2,49506,50000,183,50000,0,0,0,0,0.00,0.00,0.00,0.00
2013-09-09 22:40:00,2,50000,0,0.00,2,2,0,2,50000,50000,0,50000,0,0,0,0,0.00,0.00,0.00,0.00
2013-09-09 22:50:00,2,50000,0,0.00,2,2,0,2,50000,50000,0,50000,0,0,0,0,0.00,0.00,0.00,0.00
2013-09-09 23:00:00,2,49936,0,0.00,2,2,0,2,49364,50000,191,50000,0,0,0,0,0.00,0.00,0.00,0.00
2013-09-09 23:10:00,2,50000,0,0.00,2,2,0,2,50000,50000,0,50000,0,0,0,0,0.00,0.00,0.00,0.00
2013-09-09 23:20:00,2,50000,0,0.00,2,2,0,2,50000,50000,0,50000,0,0,0,0,0.00,0.00,0.00,0.00
2013-09-09 23:30:00,2,50000,0,0.00,2,2,0,2,50000,50000,0,50000,0,0,0,0,0.00,0.00,0.00,0.00
2013-09-09 23:40:00,2,45751,0,0.00,2,2,0,2,21654,50000,8310,49956,0,0,0,0,0.00,0.00,0.00,0.00
2013-09-09 23:50:00,2,49250,0,0.00,2,2,0,2,45483,50000,1539,50000,0,0,0,0,0.00,0.00,0.00,0.00
